Date,TemperatureHighF,TemperatureAvgF,TemperatureLowF,DewpointHighF,DewpointAvgF,DewpointLowF,HumidityHigh,HumidityAvg,HumidityLow,PressureMaxIn,PressureMinIn,WindSpeedMaxMPH,WindSpeedAvgMPH,GustSpeedMaxMPH,PrecipitationSumIn
2013-6-1,83.5,76.4,72.5,77.1,74.1,71.6,98,93,80,29.95,29.88,9,1,9,0.77
2013-6-2,88.4,77.9,71.0,77.9,73.6,70.3,98,88,66,29.93,29.84,10,1,10,0.16
2013-6-3,85.0,76.6,71.0,77.1,73.8,70.1,98,92,73,29.96,29.83,11,1,11,0.99
2013-6-4,84.7,77.9,73.7,77.4,74.7,72.8,98,90,74,29.98,29.88,9,0,9,0.03
2013-6-5,82.7,80.0,77.1,78.0,76.1,74.4,93,88,82,29.94,29.82,7,1,7,0.07
2013-6-6,86.2,79.0,72.5,79.3,75.5,70.6,97,89,76,29.83,29.69,22,3,22,1.76
2013-6-7,89.0,76.8,73.0,79.5,73.9,71.7,97,91,70,29.92,29.76,8,1,10,0.89
2013-6-8,84.5,77.2,72.8,79.1,75.1,71.9,98,93,80,30.04,29.88,8,0,8,1.70
2013-6-9,86.3,80.9,74.1,76.9,75.0,73.2,97,83,70,30.04,29.96,13,2,13,0.03
2013-6-10,87.2,82.3,78.8,77.8,76.1,74.7,89,82,71,30.01,29.93,12,2,12,0.00
2013-6-11,86.7,81.3,77.2,78.9,76.5,74.2,95,86,68,30.01,29.93,9,1,9,0.03
2013-6-12,87.2,78.1,73.9,80.1,75.6,71.1,97,92,70,30.01,29.94,5,0,5,0.53
2013-6-13,89.9,79.3,72.8,78.9,74.3,70.8,98,86,61,29.97,29.86,9,0,9,0.00
2013-6-14,92.0,80.4,72.6,77.3,73.4,69.4,98,81,55,29.89,29.80,10,1,10,0.00
2013-6-15,90.4,81.2,72.9,78.5,74.7,71.7,97,82,62,29.98,29.84,10,1,10,0.01
2013-6-16,90.2,82.0,74.0,78.3,75.2,72.0,98,81,56,30.02,29.94,10,1,10,0.00
2013-6-17,90.0,83.0,74.8,78.1,75.7,73.5,97,79,63,30.00,29.93,13,2,13,0.00
2013-6-18,90.3,82.7,74.6,78.5,75.4,73.4,97,80,62,29.99,29.90,11,2,11,0.00
2013-6-19,89.5,82.8,75.8,78.4,75.7,73.9,96,80,62,29.97,29.90,13,1,13,0.00
2013-6-20,91.0,80.3,71.3,77.6,73.5,69.8,97,81,58,30.01,29.94,11,1,11,0.06
2013-6-21,89.6,81.6,73.3,77.1,73.9,71.7,97,79,58,30.03,29.95,10,1,11,0.00
2013-6-22,88.8,81.7,73.4,76.4,73.8,71.6,96,78,60,30.02,29.96,9,1,9,0.00
2013-6-23,87.9,81.9,75.4,77.2,74.6,72.2,94,79,65,30.05,29.97,9,2,12,0.18
2013-6-24,88.9,83.0,78.7,76.6,74.0,71.8,83,75,63,30.09,30.00,13,2,13,0.00
2013-6-25,89.2,82.2,77.3,78.0,75.0,71.8,90,79,66,30.06,29.96,12,2,12,0.00
2013-6-26,89.0,82.2,76.4,77.3,75.0,72.4,95,80,60,30.00,29.93,11,1,11,0.02
2013-6-27,87.7,79.7,73.9,79.8,75.0,70.3,97,86,68,29.99,29.88,8,1,8,0.66
2013-6-28,90.8,80.4,73.2,77.9,74.6,70.7,98,84,58,29.92,29.78,10,1,10,0.47
2013-6-29,92.3,79.1,72.8,78.6,74.7,71.2,98,88,56,29.85,29.73,12,1,12,0.85
2013-6-30,89.8,77.7,73.6,78.8,74.6,72.1,98,91,65,29.87,29.77,7,1,11,1.18